Location: Beneden-Haastrecht
(52.0012°N, 4.7557°E)
Time: 10:02:43
(UTC+00:00)

X-37B - Pass Details

Date: 29 January 2021
Orbit: 383 x 391 km, 45.0° (Epoch: 10 February)

Event Time Altitude Azimuth Distance (km) Brightness Sun altitude
Rises 18:22:18 0° 261° (W) 2,274 6.2 -18.2°
Reaches altitude 10° 18:25:19 10° 229° (SW) 1,418 4.2 -18.6°
Maximum altitude 18:26:42 12° 204° (SSW) 1,290 3.6 -18.8°
Drops below altitude 10° 18:28:05 10° 178° (S) 1,417 3.4 -19.0°
Enters shadow 18:28:29 - 172° (S) 1,497 3.5 -19.1°
